Time,TemperatureF,DewpointF,PressureIn,WindDirection,WindDirectionDegrees,WindSpeedMPH,WindSpeedGustMPH,Humidity,HourlyPrecipIn,Conditions,Clouds,dailyrainin,SoftwareType,DateUTC
2013-04-04 00:00:00,32.5,14.5,30.28,North,355,2.0,6.0,47,0.00,,,0.00,meteohub,2013-04-04 04:00:00,
2013-04-04 00:05:00,32.5,15.1,30.28,NNW,348,0.0,5.0,48,0.00,,,0.00,meteohub,2013-04-04 04:05:00,
2013-04-04 00:10:00,32.4,15.3,30.29,West,279,0.0,5.0,49,0.00,,,0.00,meteohub,2013-04-04 04:10:00,
2013-04-04 00:15:00,32.4,14.9,30.29,WNW,293,0.0,5.0,48,0.00,,,0.00,meteohub,2013-04-04 04:15:00,
2013-04-04 00:20:00,32.2,15.1,30.30,WNW,293,0.0,3.0,49,0.00,,,0.00,meteohub,2013-04-04 04:20:00,
2013-04-04 00:25:00,32.2,15.1,30.30,SW,234,0.0,4.0,49,0.00,,,0.00,meteohub,2013-04-04 04:25:00,
2013-04-04 00:30:00,32.2,15.1,30.30,NNW,348,0.0,4.0,49,0.00,,,0.00,meteohub,2013-04-04 04:30:00,
2013-04-04 00:35:00,32.0,15.1,30.30,West,263,0.0,4.0,49,0.00,,,0.00,meteohub,2013-04-04 04:35:00,
2013-04-04 00:40:00,31.8,14.9,30.30,NNE,19,0.0,3.0,49,0.00,,,0.00,meteohub,2013-04-04 04:40:00,
2013-04-04 00:45:00,31.8,14.9,30.30,NW,309,1.0,3.0,49,0.00,,,0.00,meteohub,2013-04-04 04:45:00,
2013-04-04 00:50:00,31.6,14.7,30.30,NW,309,0.0,3.0,49,0.00,,,0.00,meteohub,2013-04-04 04:50:00,
2013-04-04 00:55:00,31.5,14.9,30.30,NNE,19,0.0,3.0,50,0.00,,,0.00,meteohub,2013-04-04 04:55:00,
2013-04-04 01:00:00,31.5,14.9,30.29,NW,314,0.0,3.0,50,0.00,,,0.00,meteohub,2013-04-04 05:00:00,
2013-04-04 01:05:00,31.3,15.6,30.29,NNW,331,0.0,3.0,52,0.00,,,0.00,meteohub,2013-04-04 05:05:00,
2013-04-04 01:10:00,31.1,15.4,30.29,North,0,0.0,2.0,52,0.00,,,0.00,meteohub,2013-04-04 05:10:00,
2013-04-04 01:15:00,31.1,15.4,30.29,WNW,291,0.0,2.0,52,0.00,,,0.00,meteohub,2013-04-04 05:15:00,
2013-04-04 01:20:00,31.3,15.6,30.28,NNE,17,4.0,7.0,52,0.00,,,0.00,meteohub,2013-04-04 05:20:00,
2013-04-04 01:25:00,31.5,15.8,30.28,NNE,15,2.0,7.0,52,0.00,,,0.00,meteohub,2013-04-04 05:25:00,
2013-04-04 01:31:00,31.8,16.2,30.27,North,349,2.0,7.0,52,0.00,,,0.00,meteohub,2013-04-04 05:31:00,
2013-04-04 01:36:00,32.0,16.3,30.28,North,0,1.0,10.0,52,0.00,,,0.00,meteohub,2013-04-04 05:36:00,
2013-04-04 01:41:00,32.0,16.3,30.27,NE,35,3.0,10.0,52,0.00,,,0.00,meteohub,2013-04-04 05:41:00,
2013-04-04 01:46:00,32.2,16.5,30.27,North,355,0.0,10.0,52,0.00,,,0.00,meteohub,2013-04-04 05:46:00,
2013-04-04 01:51:00,32.2,17.1,30.27,NE,34,3.0,4.0,53,0.00,,,0.00,meteohub,2013-04-04 05:51:00,
2013-04-04 01:56:00,32.2,17.1,30.27,NNW,348,3.0,7.0,53,0.00,,,0.00,meteohub,2013-04-04 05:56:00,
2013-04-04 02:01:00,32.4,17.1,30.27,NNE,15,2.0,8.0,53,0.00,,,0.00,meteohub,2013-04-04 06:01:00,
2013-04-04 02:07:00,32.4,17.1,30.27,NNE,19,3.0,8.0,53,0.00,,,0.00,meteohub,2013-04-04 06:07:00,
2013-04-04 02:12:00,32.4,17.1,30.27,North,9,0.0,8.0,53,0.00,,,0.00,meteohub,2013-04-04 06:12:00,
2013-04-04 02:17:00,32.4,17.6,30.27,North,351,2.0,8.0,54,0.00,,,0.00,meteohub,2013-04-04 06:17:00,
2013-04-04 02:22:00,32.2,17.4,30.27,North,0,0.0,5.0,54,0.00,,,0.00,meteohub,2013-04-04 06:22:00,
2013-04-04 02:27:00,32.0,17.2,30.27,NNW,341,0.0,5.0,54,0.00,,,0.00,meteohub,2013-04-04 06:27:00,
2013-04-04 02:32:00,31.8,17.4,30.27,NNE,13,1.0,5.0,55,0.00,,,0.00,meteohub,2013-04-04 06:32:00,
2013-04-04 02:37:00,31.8,17.4,30.27,NNE,24,6.0,6.0,55,0.00,,,0.00,meteohub,2013-04-04 06:37:00,
2013-04-04 02:42:00,31.8,18.0,30.27,NNE,13,11.0,11.0,56,0.00,,,0.00,meteohub,2013-04-04 06:42:00,
2013-04-04 02:47:00,31.8,18.0,30.27,NW,306,0.0,13.0,56,0.00,,,0.00,meteohub,2013-04-04 06:47:00,
2013-04-04 02:52:00,31.6,17.8,30.27,NNW,336,1.0,13.0,56,0.00,,,0.00,meteohub,2013-04-04 06:52:00,
2013-04-04 02:57:00,31.6,18.1,30.27,North,355,0.0,13.0,57,0.00,,,0.00,meteohub,2013-04-04 06:57:00,
2013-04-04 03:02:00,31.5,18.0,30.26,NNW,344,1.0,9.0,57,0.00,,,0.00,meteohub,2013-04-04 07:02:00,
2013-04-04 03:07:00,31.5,18.0,30.26,NNW,346,1.0,9.0,57,0.00,,,0.00,meteohub,2013-04-04 07:07:00,
2013-04-04 03:12:00,31.5,18.0,30.26,North,0,4.0,9.0,57,0.00,,,0.00,meteohub,2013-04-04 07:12:00,
2013-04-04 03:17:00,31.5,18.3,30.26,NW,304,0.0,6.0,58,0.00,,,0.00,meteohub,2013-04-04 07:17:00,
2013-04-04 03:22:00,31.3,18.1,30.27,North,5,2.0,5.0,58,0.00,,,0.00,meteohub,2013-04-04 07:22:00,
2013-04-04 03:27:00,31.3,18.7,30.27,NW,318,1.0,5.0,59,0.00,,,0.00,meteohub,2013-04-04 07:27:00,
2013-04-04 03:32:00,31.1,18.5,30.27,West,281,0.0,3.0,59,0.00,,,0.00,meteohub,2013-04-04 07:32:00,
2013-04-04 03:37:00,30.9,18.3,30.27,West,281,0.0,3.0,59,0.00,,,0.00,meteohub,2013-04-04 07:37:00,
2013-04-04 03:42:00,30.7,18.1,30.27,West,281,1.0,2.0,59,0.00,,,0.00,meteohub,2013-04-04 07:42:00,
2013-04-04 03:47:00,30.4,18.1,30.27,West,281,2.0,2.0,60,0.00,,,0.00,meteohub,2013-04-04 07:47:00,
2013-04-04 03:52:00,30.0,18.1,30.27,West,281,0.0,2.0,61,0.00,,,0.00,meteohub,2013-04-04 07:52:00,
2013-04-04 03:58:00,29.8,18.5,30.28,SW,232,0.0,2.0,62,0.00,,,0.00,meteohub,2013-04-04 07:58:00,
2013-04-04 04:03:00,29.8,18.5,30.28,SW,232,1.0,4.0,62,0.00,,,0.00,meteohub,2013-04-04 08:03:00,
2013-04-04 04:08:00,29.7,18.7,30.28,SW,232,0.0,4.0,63,0.00,,,0.00,meteohub,2013-04-04 08:08:00,
2013-04-04 04:13:00,29.5,18.5,30.28,SW,232,0.0,4.0,63,0.00,,,0.00,meteohub,2013-04-04 08:13:00,
2013-04-04 04:18:00,29.3,18.7,30.28,SW,232,1.0,3.0,64,0.00,,,0.00,meteohub,2013-04-04 08:18:00,
2013-04-04 04:23:00,29.1,18.5,30.28,SW,232,1.0,2.0,64,0.00,,,0.00,meteohub,2013-04-04 08:23:00,
2013-04-04 04:28:00,29.1,18.9,30.29,NW,311,1.0,2.0,65,0.00,,,0.00,meteohub,2013-04-04 08:28:00,
2013-04-04 04:33:00,29.5,19.2,30.29,NNW,337,1.0,3.0,65,0.00,,,0.00,meteohub,2013-04-04 08:33:00,
2013-04-04 04:38:00,29.5,19.2,30.30,West,281,2.0,3.0,65,0.00,,,0.00,meteohub,2013-04-04 08:38:00,
2013-04-04 04:43:00,29.3,19.0,30.30,West,269,0.0,3.0,65,0.00,,,0.00,meteohub,2013-04-04 08:43:00,
2013-04-04 04:48:00,29.1,19.2,30.31,WSW,244,0.0,3.0,66,0.00,,,0.00,meteohub,2013-04-04 08:48:00,
2013-04-04 04:53:00,29.1,19.2,30.31,SW,215,0.0,3.0,66,0.00,,,0.00,meteohub,2013-04-04 08:53:00,
2013-04-04 04:58:00,28.9,19.0,30.31,SW,215,0.0,3.0,66,0.00,,,0.00,meteohub,2013-04-04 08:58:00,
2013-04-04 05:03:00,28.9,19.4,30.31,SW,221,0.0,3.0,67,0.00,,,0.00,meteohub,2013-04-04 09:03:00,
2013-04-04 05:08:00,29.1,19.2,30.31,SW,221,0.0,3.0,66,0.00,,,0.00,meteohub,2013-04-04 09:08:00,
2013-04-04 05:13:00,29.1,19.2,30.31,SW,236,1.0,3.0,66,0.00,,,0.00,meteohub,2013-04-04 09:13:00,
2013-04-04 05:18:00,29.1,19.2,30.31,SW,236,0.0,3.0,66,0.00,,,0.00,meteohub,2013-04-04 09:18:00,
2013-04-04 05:23:00,28.9,19.4,30.32,SW,236,0.0,3.0,67,0.00,,,0.00,meteohub,2013-04-04 09:23:00,
2013-04-04 05:28:00,28.8,19.2,30.32,SW,236,0.0,3.0,67,0.00,,,0.00,meteohub,2013-04-04 09:28:00,
2013-04-04 05:33:00,28.8,19.6,30.32,SW,236,0.0,2.0,68,0.00,,,0.00,meteohub,2013-04-04 09:33:00,
2013-04-04 05:38:00,28.6,19.4,30.31,SW,236,0.0,2.0,68,0.00,,,0.00,meteohub,2013-04-04 09:38:00,
2013-04-04 05:43:00,28.4,19.2,30.32,SW,236,0.0,2.0,68,0.00,,,0.00,meteohub,2013-04-04 09:43:00,
2013-04-04 05:49:00,28.2,19.4,30.32,SW,236,1.0,1.0,69,0.00,,,0.00,meteohub,2013-04-04 09:49:00,
2013-04-04 05:54:00,28.2,19.4,30.32,SW,236,1.0,2.0,69,0.00,,,0.00,meteohub,2013-04-04 09:54:00,
2013-04-04 05:59:00,28.6,19.4,30.33,SW,236,0.0,2.0,68,0.00,,,0.00,meteohub,2013-04-04 09:59:00,
2013-04-04 06:04:00,28.8,19.6,30.33,SW,236,2.0,2.0,68,0.00,,,0.00,meteohub,2013-04-04 10:04:00,
2013-04-04 06:10:00,28.8,19.6,30.33,SW,236,0.0,2.0,68,0.00,,,0.00,meteohub,2013-04-04 10:10:00,
2013-04-04 06:15:00,28.8,19.6,30.33,SW,236,0.0,2.0,68,0.00,,,0.00,meteohub,2013-04-04 10:15:00,
2013-04-04 06:20:00,28.6,19.4,30.34,SW,236,0.0,2.0,68,0.00,,,0.00,meteohub,2013-04-04 10:20:00,
2013-04-04 06:25:00,28.2,19.4,30.33,SW,236,0.0,2.0,69,0.00,,,0.00,meteohub,2013-04-04 10:25:00,
2013-04-04 06:30:00,28.2,19.8,30.34,SW,236,0.0,2.0,70,0.00,,,0.00,meteohub,2013-04-04 10:30:00,
2013-04-04 06:35:00,28.0,19.6,30.34,SW,236,0.0,3.0,70,0.00,,,0.00,meteohub,2013-04-04 10:35:00,
2013-04-04 06:40:00,28.2,19.8,30.35,WSW,245,2.0,3.0,70,0.00,,,0.00,meteohub,2013-04-04 10:40:00,
2013-04-04 06:45:00,28.6,20.1,30.35,WSW,245,1.0,3.0,70,0.00,,,0.00,meteohub,2013-04-04 10:45:00,
2013-04-04 06:50:00,28.8,20.3,30.35,WSW,245,0.0,3.0,70,0.00,,,0.00,meteohub,2013-04-04 10:50:00,
2013-04-04 06:55:00,29.1,20.3,30.35,WSW,245,1.0,3.0,69,0.00,,,0.00,meteohub,2013-04-04 10:55:00,
2013-04-04 07:00:00,29.5,20.7,30.35,WSW,245,1.0,2.0,69,0.00,,,0.00,meteohub,2013-04-04 11:00:00,
2013-04-04 07:05:00,29.7,20.7,30.36,WSW,246,2.0,3.0,69,0.00,,,0.00,meteohub,2013-04-04 11:05:00,
2013-04-04 07:10:00,29.8,20.7,30.36,WSW,243,2.0,3.0,68,0.00,,,0.00,meteohub,2013-04-04 11:10:00,
2013-04-04 07:15:00,30.2,20.8,30.36,WSW,252,3.0,3.0,68,0.00,,,0.00,meteohub,2013-04-04 11:15:00,
2013-04-04 07:20:00,30.6,20.8,30.36,SW,228,1.0,3.0,67,0.00,,,0.00,meteohub,2013-04-04 11:20:00,
2013-04-04 07:25:00,30.9,21.2,30.37,WSW,238,0.0,3.0,67,0.00,,,0.00,meteohub,2013-04-04 11:25:00,
2013-04-04 07:30:00,31.1,21.0,30.37,SW,233,1.0,3.0,66,0.00,,,0.00,meteohub,2013-04-04 11:30:00,
2013-04-04 07:35:00,31.5,21.4,30.38,WSW,245,2.0,3.0,66,0.00,,,0.00,meteohub,2013-04-04 11:35:00,
2013-04-04 07:40:00,31.6,21.2,30.38,West,261,0.0,3.0,65,0.00,,,0.00,meteohub,2013-04-04 11:40:00,
2013-04-04 07:45:00,32.0,21.6,30.38,WSW,237,2.0,3.0,65,0.00,,,0.00,meteohub,2013-04-04 11:45:00,
2013-04-04 07:50:00,32.4,21.6,30.38,SW,228,4.0,4.0,64,0.00,,,0.00,meteohub,2013-04-04 11:50:00,
2013-04-04 07:55:00,32.5,21.0,30.38,WSW,255,0.0,5.0,62,0.00,,,0.00,meteohub,2013-04-04 11:55:00,
2013-04-04 08:00:00,33.1,21.6,30.38,WSW,246,4.0,5.0,62,0.00,,,0.00,meteohub,2013-04-04 12:00:00,
2013-04-04 08:05:00,33.3,20.8,30.38,SW,229,0.0,5.0,60,0.00,,,0.00,meteohub,2013-04-04 12:05:00,
2013-04-04 08:11:00,33.6,20.8,30.38,WSW,240,0.0,5.0,59,0.00,,,0.00,meteohub,2013-04-04 12:11:00,
2013-04-04 08:16:00,33.6,20.5,30.38,WSW,240,0.0,5.0,58,0.00,,,0.00,meteohub,2013-04-04 12:16:00,
2013-04-04 08:21:00,33.8,20.7,30.38,SW,225,0.0,4.0,58,0.00,,,0.00,meteohub,2013-04-04 12:21:00,
2013-04-04 08:26:00,34.0,21.2,30.38,West,279,0.0,4.0,59,0.00,,,0.00,meteohub,2013-04-04 12:26:00,
2013-04-04 08:31:00,34.3,21.0,30.38,WNW,288,1.0,6.0,58,0.00,,,0.00,meteohub,2013-04-04 12:31:00,
2013-04-04 08:36:00,34.9,21.6,30.38,WNW,290,0.0,6.0,58,0.00,,,0.00,meteohub,2013-04-04 12:36:00,
2013-04-04 08:41:00,35.2,21.6,30.37,WNW,295,0.0,5.0,57,0.00,,,0.00,meteohub,2013-04-04 12:41:00,
2013-04-04 08:46:00,35.4,21.7,30.38,NNW,335,0.0,7.0,57,0.00,,,0.00,meteohub,2013-04-04 12:46:00,
2013-04-04 08:51:00,36.0,21.7,30.38,NNW,338,2.0,7.0,56,0.00,,,0.00,meteohub,2013-04-04 12:51:00,
2013-04-04 08:56:00,36.1,21.9,30.37,WNW,294,1.0,7.0,56,0.00,,,0.00,meteohub,2013-04-04 12:56:00,
2013-04-04 09:01:00,36.3,20.8,30.37,NNW,336,1.0,5.0,53,0.00,,,0.00,meteohub,2013-04-04 13:01:00,
2013-04-04 09:07:00,36.3,20.8,30.37,North,355,3.0,8.0,53,0.00,,,0.00,meteohub,2013-04-04 13:07:00,
2013-04-04 09:12:00,36.7,21.2,30.37,WNW,286,4.0,8.0,53,0.00,,,0.00,meteohub,2013-04-04 13:12:00,
2013-04-04 09:17:00,36.7,20.7,30.36,NE,47,0.0,11.0,52,0.00,,,0.00,meteohub,2013-04-04 13:17:00,
2013-04-04 09:22:00,37.0,21.0,30.36,North,9,4.0,11.0,52,0.00,,,0.00,meteohub,2013-04-04 13:22:00,
2013-04-04 09:27:00,37.2,21.7,30.35,NNE,30,3.0,11.0,53,0.00,,,0.00,meteohub,2013-04-04 13:27:00,
2013-04-04 09:32:00,37.8,21.2,30.35,NW,306,1.0,8.0,51,0.00,,,0.00,meteohub,2013-04-04 13:32:00,
2013-04-04 09:37:00,38.1,21.6,30.35,NNE,22,5.0,7.0,51,0.00,,,0.00,meteohub,2013-04-04 13:37:00,
2013-04-04 09:42:00,38.5,19.9,30.35,NW,309,0.0,6.0,47,0.00,,,0.00,meteohub,2013-04-04 13:42:00,
2013-04-04 09:47:00,38.7,20.1,30.35,NNW,327,1.0,6.0,47,0.00,,,0.00,meteohub,2013-04-04 13:47:00,
2013-04-04 09:52:00,38.8,19.4,30.35,North,11,3.0,6.0,45,0.00,,,0.00,meteohub,2013-04-04 13:52:00,
2013-04-04 09:57:00,38.8,20.3,30.34,North,10,5.0,6.0,47,0.00,,,0.00,meteohub,2013-04-04 13:57:00,
2013-04-04 10:02:00,39.0,19.9,30.34,North,0,3.0,7.0,46,0.00,,,0.00,meteohub,2013-04-04 14:02:00,
2013-04-04 10:07:00,39.2,20.1,30.34,NNW,343,1.0,7.0,46,0.00,,,0.00,meteohub,2013-04-04 14:07:00,
2013-04-04 10:12:00,39.4,19.8,30.34,NW,318,0.0,7.0,45,0.00,,,0.00,meteohub,2013-04-04 14:12:00,
2013-04-04 10:17:00,39.6,19.4,30.34,NNE,32,1.0,7.0,44,0.00,,,0.00,meteohub,2013-04-04 14:17:00,
2013-04-04 10:22:00,39.6,20.5,30.33,North,350,0.0,7.0,46,0.00,,,0.00,meteohub,2013-04-04 14:22:00,
2013-04-04 10:27:00,40.1,20.5,30.33,NNE,30,2.0,7.0,45,0.00,,,0.00,meteohub,2013-04-04 14:27:00,
2013-04-04 10:33:00,40.8,20.1,30.34,NNE,12,5.0,7.0,43,0.00,,,0.00,meteohub,2013-04-04 14:33:00,
2013-04-04 10:37:00,40.8,20.7,30.33,North,0,0.0,7.0,44,0.00,,,0.00,meteohub,2013-04-04 14:37:00,
2013-04-04 10:43:00,41.2,20.8,30.33,NE,38,0.0,7.0,44,0.00,,,0.00,meteohub,2013-04-04 14:43:00,
2013-04-04 10:48:00,41.4,20.5,30.33,SW,216,0.0,7.0,43,0.00,,,0.00,meteohub,2013-04-04 14:48:00,
2013-04-04 10:53:00,41.7,21.4,30.33,SW,234,0.0,6.0,44,0.00,,,0.00,meteohub,2013-04-04 14:53:00,
2013-04-04 10:58:00,42.4,21.0,30.33,ESE,113,1.0,6.0,42,0.00,,,0.00,meteohub,2013-04-04 14:58:00,
2013-04-04 11:03:00,43.0,19.8,30.32,West,266,0.0,4.0,39,0.00,,,0.00,meteohub,2013-04-04 15:03:00,
2013-04-04 11:08:00,43.3,20.1,30.32,WNW,299,0.0,10.0,39,0.00,,,0.00,meteohub,2013-04-04 15:08:00,
2013-04-04 11:13:00,43.9,19.9,30.32,WSW,244,3.0,10.0,38,0.00,,,0.00,meteohub,2013-04-04 15:13:00,
2013-04-04 11:18:00,44.2,19.6,30.32,WNW,282,0.0,10.0,37,0.00,,,0.00,meteohub,2013-04-04 15:18:00,
2013-04-04 11:23:00,44.6,19.2,30.31,SSE,167,1.0,9.0,36,0.00,,,0.00,meteohub,2013-04-04 15:23:00,
2013-04-04 11:28:00,45.5,20.7,30.31,NW,315,0.0,9.0,37,0.00,,,0.00,meteohub,2013-04-04 15:28:00,
2013-04-04 11:33:00,46.4,20.3,30.31,NNW,338,3.0,8.0,35,0.00,,,0.00,meteohub,2013-04-04 15:33:00,
2013-04-04 11:38:00,46.9,20.7,30.31,WNW,290,0.0,8.0,35,0.00,,,0.00,meteohub,2013-04-04 15:38:00,
2013-04-04 11:43:00,47.5,19.8,30.31,WNW,303,1.0,7.0,33,0.00,,,0.00,meteohub,2013-04-04 15:43:00,
2013-04-04 11:48:00,47.8,18.7,30.31,NNW,336,1.0,7.0,31,0.00,,,0.00,meteohub,2013-04-04 15:48:00,
2013-04-04 11:53:00,48.2,20.5,30.30,West,280,1.0,6.0,33,0.00,,,0.00,meteohub,2013-04-04 15:53:00,
2013-04-04 11:58:00,48.7,19.4,30.30,NNW,345,0.0,7.0,31,0.00,,,0.00,meteohub,2013-04-04 15:58:00,
2013-04-04 12:03:00,49.3,19.2,30.30,NNE,16,3.0,7.0,30,0.00,,,0.00,meteohub,2013-04-04 16:03:00,
2013-04-04 12:08:00,49.5,19.2,30.30,WSW,239,2.0,4.0,30,0.00,,,0.00,meteohub,2013-04-04 16:08:00,
2013-04-04 12:13:00,49.5,19.2,30.30,South,177,3.0,9.0,30,0.00,,,0.00,meteohub,2013-04-04 16:13:00,
2013-04-04 12:18:00,49.3,16.7,30.29,SSE,162,0.0,10.0,27,0.00,,,0.00,meteohub,2013-04-04 16:18:00,
2013-04-04 12:23:00,49.1,17.4,30.29,SW,226,2.0,10.0,28,0.00,,,0.00,meteohub,2013-04-04 16:23:00,
2013-04-04 12:29:00,49.3,19.9,30.29,SW,226,3.0,10.0,31,0.00,,,0.00,meteohub,2013-04-04 16:29:00,
2013-04-04 12:34:00,49.6,18.7,30.28,WNW,287,2.0,8.0,29,0.00,,,0.00,meteohub,2013-04-04 16:34:00,
2013-04-04 12:39:00,50.2,18.3,30.28,West,273,1.0,8.0,28,0.00,,,0.00,meteohub,2013-04-04 16:39:00,
2013-04-04 12:44:00,50.7,20.5,30.28,ESE,123,3.0,8.0,30,0.00,,,0.00,meteohub,2013-04-04 16:44:00,
2013-04-04 12:49:00,51.3,18.3,30.27,WNW,299,4.0,6.0,27,0.00,,,0.00,meteohub,2013-04-04 16:49:00,
2013-04-04 12:54:00,51.4,18.5,30.27,South,175,1.0,7.0,27,0.00,,,0.00,meteohub,2013-04-04 16:54:00,
2013-04-04 12:59:00,51.6,22.6,30.27,SW,233,3.0,7.0,32,0.00,,,0.00,meteohub,2013-04-04 16:59:00,
2013-04-04 13:04:00,52.0,19.9,30.27,WSW,250,0.0,7.0,28,0.00,,,0.00,meteohub,2013-04-04 17:04:00,
2013-04-04 13:09:00,52.2,19.2,30.26,WSW,247,2.0,6.0,27,0.00,,,0.00,meteohub,2013-04-04 17:09:00,
2013-04-04 13:14:00,52.2,20.8,30.26,West,259,4.0,6.0,29,0.00,,,0.00,meteohub,2013-04-04 17:14:00,
2013-04-04 13:19:00,52.5,21.2,30.26,WSW,241,5.0,8.0,29,0.00,,,0.00,meteohub,2013-04-04 17:19:00,
2013-04-04 13:25:00,52.5,19.4,30.25,South,178,4.0,8.0,27,0.00,,,0.00,meteohub,2013-04-04 17:25:00,
2013-04-04 13:30:00,52.5,20.3,30.25,WSW,244,5.0,8.0,28,0.00,,,0.00,meteohub,2013-04-04 17:30:00,
2013-04-04 13:35:00,52.7,22.1,30.24,South,174,1.0,8.0,30,0.00,,,0.00,meteohub,2013-04-04 17:35:00,
2013-04-04 13:40:00,53.1,21.6,30.24,NNW,344,2.0,8.0,29,0.00,,,0.00,meteohub,2013-04-04 17:40:00,
2013-04-04 13:45:00,53.4,21.2,30.24,WSW,241,2.0,8.0,28,0.00,,,0.00,meteohub,2013-04-04 17:45:00,
2013-04-04 13:50:00,53.8,20.7,30.24,SSE,161,3.0,8.0,27,0.00,,,0.00,meteohub,2013-04-04 17:50:00,
2013-04-04 13:55:00,54.1,20.8,30.24,West,271,5.0,6.0,27,0.00,,,0.00,meteohub,2013-04-04 17:55:00,
2013-04-04 14:00:00,54.5,22.1,30.24,SW,232,5.0,7.0,28,0.00,,,0.00,meteohub,2013-04-04 18:00:00,
2013-04-04 14:05:00,55.0,22.5,30.24,WSW,248,3.0,7.0,28,0.00,,,0.00,meteohub,2013-04-04 18:05:00,
2013-04-04 14:10:00,54.9,21.6,30.23,West,265,0.0,7.0,27,0.00,,,0.00,meteohub,2013-04-04 18:10:00,
2013-04-04 14:15:00,54.9,21.6,30.22,SW,220,4.0,6.0,27,0.00,,,0.00,meteohub,2013-04-04 18:15:00,
2013-04-04 14:20:00,55.2,21.7,30.22,West,269,1.0,6.0,27,0.00,,,0.00,meteohub,2013-04-04 18:20:00,
2013-04-04 14:25:00,55.8,21.4,30.22,SW,222,1.0,5.0,26,0.00,,,0.00,meteohub,2013-04-04 18:25:00,
2013-04-04 14:30:00,55.6,20.3,30.22,South,183,0.0,8.0,25,0.00,,,0.00,meteohub,2013-04-04 18:30:00,
2013-04-04 14:35:00,55.2,21.7,30.22,WNW,283,4.0,8.0,27,0.00,,,0.00,meteohub,2013-04-04 18:35:00,
2013-04-04 14:40:00,55.4,21.9,30.21,South,190,0.0,8.0,27,0.00,,,0.00,meteohub,2013-04-04 18:40:00,
2013-04-04 14:45:00,55.6,21.2,30.21,WSW,250,3.0,7.0,26,0.00,,,0.00,meteohub,2013-04-04 18:45:00,
2013-04-04 14:50:00,55.2,20.8,30.21,South,169,3.0,7.0,26,0.00,,,0.00,meteohub,2013-04-04 18:50:00,
2013-04-04 14:55:00,55.4,21.9,30.21,South,178,1.0,8.0,27,0.00,,,0.00,meteohub,2013-04-04 18:55:00,
2013-04-04 15:00:00,55.6,21.2,30.20,SW,216,4.0,10.0,26,0.00,,,0.00,meteohub,2013-04-04 19:00:00,
2013-04-04 15:05:00,55.4,22.8,30.20,West,259,0.0,10.0,28,0.00,,,0.00,meteohub,2013-04-04 19:05:00,
2013-04-04 15:10:00,55.4,20.1,30.20,SSW,201,2.0,10.0,25,0.00,,,0.00,meteohub,2013-04-04 19:10:00,
2013-04-04 15:16:00,55.2,20.8,30.19,WSW,250,3.0,7.0,26,0.00,,,0.00,meteohub,2013-04-04 19:16:00,
2013-04-04 15:21:00,55.0,21.7,30.19,SSE,167,4.0,11.0,27,0.00,,,0.00,meteohub,2013-04-04 19:21:00,
2013-04-04 15:26:00,55.2,21.7,30.18,SW,220,1.0,11.0,27,0.00,,,0.00,meteohub,2013-04-04 19:26:00,
2013-04-04 15:31:00,55.2,21.7,30.17,SSE,155,0.0,11.0,27,0.00,,,0.00,meteohub,2013-04-04 19:31:00,
2013-04-04 15:36:00,55.8,20.5,30.17,SE,142,5.0,9.0,25,0.00,,,0.00,meteohub,2013-04-04 19:36:00,
2013-04-04 15:41:00,55.9,22.5,30.17,West,267,1.0,7.0,27,0.00,,,0.00,meteohub,2013-04-04 19:41:00,
2013-04-04 15:46:00,56.5,21.0,30.17,WSW,240,5.0,8.0,25,0.00,,,0.00,meteohub,2013-04-04 19:46:00,
2013-04-04 15:51:00,56.1,20.8,30.17,West,275,0.0,8.0,25,0.00,,,0.00,meteohub,2013-04-04 19:51:00,
2013-04-04 15:56:00,55.9,20.7,30.16,West,281,1.0,11.0,25,0.00,,,0.00,meteohub,2013-04-04 19:56:00,
2013-04-04 16:01:00,55.9,21.6,30.16,SSE,157,2.0,11.0,26,0.00,,,0.00,meteohub,2013-04-04 20:01:00,
2013-04-04 16:06:00,55.9,20.7,30.16,SW,228,0.0,7.0,25,0.00,,,0.00,meteohub,2013-04-04 20:06:00,
2013-04-04 16:12:00,55.8,18.5,30.16,SSE,162,3.0,8.0,23,0.00,,,0.00,meteohub,2013-04-04 20:12:00,
2013-04-04 16:17:00,55.9,19.6,30.15,WSW,239,0.0,8.0,24,0.00,,,0.00,meteohub,2013-04-04 20:17:00,
2013-04-04 16:22:00,55.9,20.7,30.15,WSW,257,1.0,6.0,25,0.00,,,0.00,meteohub,2013-04-04 20:22:00,
2013-04-04 16:27:00,55.9,21.6,30.15,ENE,61,2.0,5.0,26,0.00,,,0.00,meteohub,2013-04-04 20:27:00,
2013-04-04 16:32:00,55.2,23.5,30.15,WNW,288,5.0,6.0,29,0.00,,,0.00,meteohub,2013-04-04 20:32:00,
2013-04-04 16:37:00,54.1,23.4,30.15,SE,135,3.0,8.0,30,0.00,,,0.00,meteohub,2013-04-04 20:37:00,
2013-04-04 16:42:00,53.4,24.3,30.15,SE,140,4.0,9.0,32,0.00,,,0.00,meteohub,2013-04-04 20:42:00,
2013-04-04 16:47:00,53.1,24.8,30.14,SE,144,3.0,9.0,33,0.00,,,0.00,meteohub,2013-04-04 20:47:00,
2013-04-04 16:52:00,53.1,25.3,30.14,West,259,3.0,9.0,34,0.00,,,0.00,meteohub,2013-04-04 20:52:00,
2013-04-04 16:57:00,53.1,25.3,30.14,WSW,257,2.0,9.0,34,0.00,,,0.00,meteohub,2013-04-04 20:57:00,
2013-04-04 17:02:00,53.1,25.3,30.15,NNE,18,1.0,9.0,34,0.00,,,0.00,meteohub,2013-04-04 21:02:00,
2013-04-04 17:07:00,52.9,25.3,30.14,South,190,1.0,9.0,34,0.00,,,0.00,meteohub,2013-04-04 21:07:00,
2013-04-04 17:12:00,52.2,24.6,30.14,SSW,196,4.0,9.0,34,0.00,,,0.00,meteohub,2013-04-04 21:12:00,
2013-04-04 17:17:00,51.4,24.6,30.14,SW,220,1.0,8.0,35,0.00,,,0.00,meteohub,2013-04-04 21:17:00,
2013-04-04 17:22:00,51.3,24.6,30.14,SSE,167,1.0,9.0,35,0.00,,,0.00,meteohub,2013-04-04 21:22:00,
2013-04-04 17:27:00,50.7,24.1,30.14,SE,134,0.0,11.0,35,0.00,,,0.00,meteohub,2013-04-04 21:27:00,
2013-04-04 17:32:00,50.5,24.6,30.14,SW,224,2.0,11.0,36,0.00,,,0.00,meteohub,2013-04-04 21:32:00,
2013-04-04 17:37:00,50.5,24.6,30.14,SE,126,1.0,9.0,36,0.00,,,0.00,meteohub,2013-04-04 21:37:00,
2013-04-04 17:42:00,50.4,24.4,30.13,ESE,103,1.0,10.0,36,0.00,,,0.00,meteohub,2013-04-04 21:42:00,
2013-04-04 17:47:00,50.2,24.3,30.13,SE,129,2.0,10.0,36,0.00,,,0.00,meteohub,2013-04-04 21:47:00,
2013-04-04 17:52:00,49.8,23.2,30.13,South,177,0.0,10.0,35,0.00,,,0.00,meteohub,2013-04-04 21:52:00,
2013-04-04 17:57:00,49.6,23.7,30.14,SSE,167,0.0,10.0,36,0.00,,,0.00,meteohub,2013-04-04 21:57:00,
2013-04-04 18:02:00,49.5,23.5,30.13,SSW,194,2.0,10.0,36,0.00,,,0.00,meteohub,2013-04-04 22:02:00,
2013-04-04 18:07:00,49.5,23.5,30.13,SSW,194,0.0,10.0,36,0.00,,,0.00,meteohub,2013-04-04 22:07:00,
2013-04-04 18:12:00,49.3,24.1,30.13,SSE,155,2.0,6.0,37,0.00,,,0.00,meteohub,2013-04-04 22:12:00,
2013-04-04 18:17:00,48.7,23.5,30.13,SE,146,2.0,7.0,37,0.00,,,0.00,meteohub,2013-04-04 22:17:00,
2013-04-04 18:22:00,48.6,24.1,30.13,SSE,163,1.0,7.0,38,0.00,,,0.00,meteohub,2013-04-04 22:22:00,
2013-04-04 18:27:00,48.4,23.9,30.14,SSE,157,2.0,7.0,38,0.00,,,0.00,meteohub,2013-04-04 22:27:00,
2013-04-04 18:32:00,48.0,24.3,30.14,SSE,155,3.0,7.0,39,0.00,,,0.00,meteohub,2013-04-04 22:32:00,
2013-04-04 18:37:00,47.7,23.9,30.14,SSE,153,4.0,7.0,39,0.00,,,0.00,meteohub,2013-04-04 22:37:00,
2013-04-04 18:42:00,47.1,24.1,30.14,SE,124,0.0,9.0,40,0.00,,,0.00,meteohub,2013-04-04 22:42:00,
2013-04-04 18:47:00,46.9,24.4,30.14,SSW,202,2.0,9.0,41,0.00,,,0.00,meteohub,2013-04-04 22:47:00,
2013-04-04 18:52:00,46.6,24.8,30.14,SSE,150,0.0,7.0,42,0.00,,,0.00,meteohub,2013-04-04 22:52:00,
2013-04-04 18:57:00,46.2,24.4,30.14,SE,138,1.0,7.0,42,0.00,,,0.00,meteohub,2013-04-04 22:57:00,
2013-04-04 19:02:00,46.0,24.3,30.14,NNW,334,0.0,8.0,42,0.00,,,0.00,meteohub,2013-04-04 23:02:00,
2013-04-04 19:07:00,45.9,24.6,30.14,WSW,251,1.0,8.0,43,0.00,,,0.00,meteohub,2013-04-04 23:07:00,
2013-04-04 19:12:00,45.7,25.0,30.14,SSE,150,4.0,8.0,44,0.00,,,0.00,meteohub,2013-04-04 23:12:00,
2013-04-04 19:17:00,45.3,24.6,30.14,South,183,0.0,8.0,44,0.00,,,0.00,meteohub,2013-04-04 23:17:00,
2013-04-04 19:22:00,45.1,25.0,30.14,SSW,198,1.0,8.0,45,0.00,,,0.00,meteohub,2013-04-04 23:22:00,
2013-04-04 19:27:00,45.0,25.3,30.15,SSE,167,2.0,5.0,46,0.00,,,0.00,meteohub,2013-04-04 23:27:00,
2013-04-04 19:32:00,44.8,25.7,30.15,SSE,160,2.0,4.0,47,0.00,,,0.00,meteohub,2013-04-04 23:32:00,
2013-04-04 19:37:00,44.4,25.9,30.15,SE,139,4.0,5.0,48,0.00,,,0.00,meteohub,2013-04-04 23:37:00,
2013-04-04 19:42:00,44.2,26.2,30.14,South,184,0.0,5.0,49,0.00,,,0.00,meteohub,2013-04-04 23:42:00,
2013-04-04 19:47:00,44.1,26.1,30.15,SSE,150,1.0,6.0,49,0.00,,,0.00,meteohub,2013-04-04 23:47:00,
2013-04-04 19:52:00,43.9,26.4,30.15,SSE,161,6.0,6.0,50,0.00,,,0.00,meteohub,2013-04-04 23:52:00,
2013-04-04 19:57:00,43.7,26.2,30.15,SSE,165,3.0,8.0,50,0.00,,,0.00,meteohub,2013-04-04 23:57:00,
2013-04-04 20:02:00,43.3,26.4,30.15,SSE,165,3.0,8.0,51,0.00,,,0.00,meteohub,2013-04-05 00:02:00,
2013-04-04 20:07:00,43.3,27.0,30.15,SSE,165,1.0,7.0,52,0.00,,,0.00,meteohub,2013-04-05 00:07:00,
2013-04-04 20:13:00,43.2,27.1,30.15,West,269,0.0,7.0,53,0.00,,,0.00,meteohub,2013-04-05 00:13:00,
2013-04-04 20:18:00,43.0,27.0,30.15,SW,233,0.0,7.0,53,0.00,,,0.00,meteohub,2013-04-05 00:18:00,
2013-04-04 20:23:00,42.8,27.3,30.15,SW,217,2.0,7.0,54,0.00,,,0.00,meteohub,2013-04-05 00:23:00,
2013-04-04 20:28:00,42.6,27.1,30.15,SSW,209,2.0,4.0,54,0.00,,,0.00,meteohub,2013-04-05 00:28:00,
2013-04-04 20:33:00,42.6,27.5,30.14,SSE,150,0.0,6.0,55,0.00,,,0.00,meteohub,2013-04-05 00:33:00,
2013-04-04 20:38:00,42.4,27.9,30.14,SSE,151,2.0,6.0,56,0.00,,,0.00,meteohub,2013-04-05 00:38:00,
2013-04-04 20:43:00,42.4,27.9,30.14,SW,224,1.0,6.0,56,0.00,,,0.00,meteohub,2013-04-05 00:43:00,
2013-04-04 20:48:00,42.3,27.7,30.14,SW,226,0.0,6.0,56,0.00,,,0.00,meteohub,2013-04-05 00:48:00,
2013-04-04 20:53:00,42.3,28.0,30.14,WSW,240,1.0,6.0,57,0.00,,,0.00,meteohub,2013-04-05 00:53:00,
2013-04-04 20:58:00,42.1,28.4,30.14,SSE,164,0.0,6.0,58,0.00,,,0.00,meteohub,2013-04-05 00:58:00,
2013-04-04 21:03:00,42.1,27.9,30.14,SSW,193,1.0,3.0,57,0.00,,,0.00,meteohub,2013-04-05 01:03:00,
2013-04-04 21:08:00,41.9,28.2,30.14,SW,236,0.0,5.0,58,0.00,,,0.00,meteohub,2013-04-05 01:08:00,
2013-04-04 21:13:00,41.7,28.0,30.14,SSW,194,0.0,5.0,58,0.00,,,0.00,meteohub,2013-04-05 01:13:00,
2013-04-04 21:18:00,41.5,27.9,30.14,SSW,205,0.0,5.0,58,0.00,,,0.00,meteohub,2013-04-05 01:18:00,
2013-04-04 21:23:00,41.5,28.2,30.14,SSW,196,0.0,5.0,59,0.00,,,0.00,meteohub,2013-04-05 01:23:00,
2013-04-04 21:28:00,41.4,28.0,30.14,SSE,155,0.0,5.0,59,0.00,,,0.00,meteohub,2013-04-05 01:28:00,
2013-04-04 21:33:00,41.4,28.0,30.14,South,186,0.0,3.0,59,0.00,,,0.00,meteohub,2013-04-05 01:33:00,
2013-04-04 21:38:00,41.2,28.4,30.14,South,179,1.0,5.0,60,0.00,,,0.00,meteohub,2013-04-05 01:38:00,
2013-04-04 21:43:00,41.2,28.4,30.14,SSW,196,0.0,5.0,60,0.00,,,0.00,meteohub,2013-04-05 01:43:00,
2013-04-04 21:49:00,40.8,28.0,30.13,SSW,196,0.0,5.0,60,0.00,,,0.00,meteohub,2013-04-05 01:49:00,
2013-04-04 21:54:00,40.6,28.2,30.13,SSW,196,0.0,4.0,61,0.00,,,0.00,meteohub,2013-04-05 01:54:00,
2013-04-04 21:59:00,40.6,28.2,30.13,SSW,196,0.0,2.0,61,0.00,,,0.00,meteohub,2013-04-05 01:59:00,
2013-04-04 22:04:00,40.5,28.4,30.13,SSW,196,0.0,0.0,62,0.00,,,0.00,meteohub,2013-04-05 02:04:00,
2013-04-04 22:09:00,40.3,28.8,30.12,SSW,196,0.0,0.0,63,0.00,,,0.00,meteohub,2013-04-05 02:09:00,
2013-04-04 22:14:00,39.9,28.8,30.12,SSW,196,0.0,0.0,64,0.00,,,0.00,meteohub,2013-04-05 02:14:00,
2013-04-04 22:19:00,39.7,28.9,30.12,SSW,196,0.0,0.0,65,0.00,,,0.00,meteohub,2013-04-05 02:19:00,
2013-04-04 22:24:00,39.6,28.8,30.12,SSW,196,0.0,0.0,65,0.00,,,0.00,meteohub,2013-04-05 02:24:00,
2013-04-04 22:29:00,39.4,28.9,30.12,SSW,196,0.0,1.0,66,0.00,,,0.00,meteohub,2013-04-05 02:29:00,
2013-04-04 22:34:00,39.2,29.1,30.11,South,172,0.0,1.0,67,0.00,,,0.00,meteohub,2013-04-05 02:34:00,
2013-04-04 22:39:00,39.2,29.5,30.11,SSW,202,5.0,5.0,68,0.00,,,0.00,meteohub,2013-04-05 02:39:00,
2013-04-04 22:45:00,39.0,29.7,30.11,South,184,0.0,3.0,69,0.00,,,0.00,meteohub,2013-04-05 02:45:00,
2013-04-04 22:50:00,39.0,29.7,30.11,West,280,0.0,7.0,69,0.00,,,0.00,meteohub,2013-04-05 02:50:00,
2013-04-04 22:55:00,39.0,29.7,30.11,SSW,200,0.0,7.0,69,0.00,,,0.00,meteohub,2013-04-05 02:55:00,
2013-04-04 23:00:00,38.8,29.8,30.11,SSE,158,0.0,6.0,70,0.00,,,0.00,meteohub,2013-04-05 03:00:00,
2013-04-04 23:05:00,38.8,29.8,30.11,South,182,0.0,4.0,70,0.00,,,0.00,meteohub,2013-04-05 03:05:00,
2013-04-04 23:10:00,38.8,30.2,30.11,South,181,0.0,2.0,71,0.00,,,0.00,meteohub,2013-04-05 03:10:00,
2013-04-04 23:15:00,38.8,30.2,30.10,South,181,0.0,2.0,71,0.00,,,0.00,meteohub,2013-04-05 03:15:00,
2013-04-04 23:20:00,38.7,30.0,30.10,South,186,1.0,2.0,71,0.00,,,0.00,meteohub,2013-04-05 03:20:00,
2013-04-04 23:25:00,38.7,30.4,30.10,South,173,0.0,2.0,72,0.00,,,0.00,meteohub,2013-04-05 03:25:00,
2013-04-04 23:30:00,38.5,30.6,30.10,South,181,0.0,2.0,73,0.00,,,0.00,meteohub,2013-04-05 03:30:00,
2013-04-04 23:35:00,38.5,30.6,30.10,South,181,0.0,3.0,73,0.00,,,0.00,meteohub,2013-04-05 03:35:00,
2013-04-04 23:40:00,38.5,30.6,30.10,SSW,202,0.0,5.0,73,0.00,,,0.00,meteohub,2013-04-05 03:40:00,
2013-04-04 23:45:00,38.5,30.9,30.10,SSW,202,0.0,5.0,74,0.00,,,0.00,meteohub,2013-04-05 03:45:00,
2013-04-04 23:50:00,38.3,30.7,30.10,SSW,208,0.0,5.0,74,0.00,,,0.00,meteohub,2013-04-05 03:50:00,
2013-04-04 23:55:00,38.3,31.1,30.10,SSE,154,0.0,2.0,75,0.00,,,0.00,meteohub,2013-04-05 03:55:00,